NOAA 16 DEB, 41706

Orbit data source: Space-Track

NOAA 16 DEB, 41706 is space debris in SSO originally from a launch on Thu, 21 Sep 2000 UTC launched from the Air Force Western Test Range (AFWTR). Debris objects in space refer to the collection of defunct objects orbiting the Earth. Examples of debris include non-operational satellites, rocket bodies, and fragments generated from explosions, collisions, or faulty payload assembly.

Loading next visibility...
Identifier
41706, 2000-055PL
Orbit
SSO
Country
Flag of USUS
Related business
Manufacturer
Unknown
Mission
Spacecraft
Bus & Motor
Unknown
Mass
Unknown
Launch date (UTC)
2000-09-21 (26 years ago)
Launch vehicle
Unknown
Launch site
Air Force Western Test Range (AFWTR)
Object type
Payload
Rocket body
Debris
Shape & HBR
Unknown shape, 0.1 m
Radar Cross Section
Medium (>0.1 m² and <1 m²)

Expand to show TLE details & history
Last TLE update: 1 week ago

TLE from 1 week ago
0 NOAA 16 DEB
1 41706U 00055PL  26166.32266055  .00001769  00000-0  90293-3 0  9997
2 41706  98.6687 195.1543 0033279 202.4644 157.5075 14.16633426528896
Epoch: 2026-06-15T07:44Z
TLE epoch observation values (Epoch: 2026-06-15T07:44:37.871Z)
Latitude
-0.00006°
Longitude
175.38581°
Altitude
861.872 km
Speed
7.41 km/s
True Right ascension
13h 00m 37s
True Declination
0° 00' 00"
Sunlit
Object was in daylight at epoch
Visualization orbit readout
Latitude
Unknown
Longitude
Unknown
Altitude
Unknown
Speed
Unknown
Apparent Right ascension
Unknown
Apparent Declination
Unknown
Sunlit
N/A
Visualization observer readout
Local Sidereal Time
23:19:28
Azimuth
Unknown
Elevation
Unknown
Doppler factor
Unknown
Orbital elements
Apogee altitude
857.923 km
Perigee altitude
809.921 km
Semi-major axis
7,212.059 km
Eccentricity
0.00333
Inclination
98.6687°
RAAN
195.1543°
Arg. of periapsis
202.4644°
True anomaly
157.65283°
Mean anomaly
157.5075°
Eccentric anomaly
157.58022°
Mean motion
3.54368 °/min
Orbital period
101.59 mins
BSTAR
0.00090293
Loading maneuver chart data...
Computing Atmospheric mass density...
Loading historical data...
Loading historical data...
Loading historical data...
Loading historical data...
Loading historical data...
Loading historical data...
Loading historical data...

Documentation

Showing up to 5 results
|